sat.trackr.live / text

‹ back to catalog

GSAT0204 (GALILEO 8)

NORAD 40545 · 2015-017B

PAYLOAD ACTIVE UNKNOWN

§ Identity

Operator
Country
ESA
Launch date
2015-03-27
Launch site
FRGUI
Launch vehicle
Mass (kg)
RCS (m²)
9.46

Purposes: earth_obs, nav

External: N2YO · Heavens-Above · Gunter

§ Orbital elements

Epoch: 2026-05-23T19:58:12.696096Z

Period
844.70 min
Inclination
56.8011°
Eccentricity
0.0001794
Mean motion
1.70475655 rev/d
Perigee alt
23,216.7 km
Apogee alt
23,227.3 km
Semi-major
29,600.1 km
B*
0.0000e+0
RAAN
342.2776°
Arg perigee
265.4418°
Mean anomaly
94.5573°
Rev number
3,183

§ Raw data

GSAT0204 (GALILEO 8)1 40545U 15017B   26143.83209139 -.00000090  00000+0  00000+0 0  99912 40545  56.8011 342.2776 0001794 265.4418  94.5573  1.70475655 31831

JSON: /api/v1/satellites/40545 · /tle

For live sub-satellite position, see the globe view (requires WebGL).

§ Visibility from observer

Set your observer location to see the next 7 days of passes ≥ 10°. The values pass through the URL so the page stays shareable.

No JS? Fill the form by hand. The geolocation button needs JavaScript.